Regional Weather Roundup
Issued by NWS

Home | Current Version | Previous Version | Text Only | Print | Product List | Glossary Off
Versions: 1 2 3 4 5 6 7 8 9 10 11 12 13 14 15 16 17 18 19 20 21 22 23 24 25 26 27 28 29 30 31 32 33 34 35 36 37 38 39 40 41 42 43 44 45 46 47 48 49 50

000
ASUS43 KMPX 281201
RWRMN
WEATHER ROUNDUP FOR MINNESOTA
NATIONAL WEATHER SERVICE TWIN CITIES/CHANHASSEN MN
700 AM CDT THU AUG 28 2014


NOTE: "FAIR" INDICATES FEW OR NO CLOUDS BELOW 12,000 FEET WITH NO
SIGNIFICANT WEATHER AND/OR OBSTRUCTIONS TO VISIBILITY. N/A MEANS
CURRENT SKY AND/OR WEATHER CONDITIONS ARE NOT AVAILABLE.

MNZ060>063-068>070-281300-
   Twin Cities Metro

CITY           SKY/WX    TMP DP  RH WIND       PRES   REMARKS
TWIN CITIES    MOCLDY    62  57  83 E9        30.08S
6HR MIN TEMP:  61; 6HR MAX TEMP:  65;

ST PAUL        PTCLDY    61  55  81 SE6       30.09R
CRYSTAL        CLEAR     63  56  78 SE5       30.07R
BLAINE         CLEAR     63  57  82 SE6       30.08S
LAKEVILLE      PTCLDY    55  55 100 CALM      30.08S
EDEN PRAIRIE   CLEAR     62  58  86 E3        30.07S
6HR MIN TEMP:  61; 6HR MAX TEMP:  65;

SOUTH ST PAUL  PTCLDY    61  55  79 SE3       30.09R
LAKE ELMO      FAIR      59  54  82 E5        30.10R
$$
MNZ001>005-007-008-013>017-022>024-027-028-281300-
   Northwest Minnesota

CITY           SKY/WX    TMP DP  RH WIND       PRES   REMARKS
BEMIDJI        CLOUDY    57  56  94 SE3       30.06F
HALLOCK        CLEAR     57  55  94 SE7       29.98S
ROSEAU         CLEAR     55  52  88 S8        30.02F
WARROAD        CLEAR     54  48  82 S7        30.03F
THIEF RVR FALL CLOUDY    59  55  88 SE7       30.02S
CROOKSTON      MOCLDY    61  59  94 SE9       30.00F
FOSSTON        CLOUDY    59  55  88 SE5       30.04S
DETROIT LAKES  CLOUDY    61  59  94 SE8       30.05S
MOORHEAD       CLOUDY    64  64 100 S8        30.01S
PARK RAPIDS    CLOUDY    57  55  93 SE6       30.06F
MAHNOMEN       CLOUDY    60  57  89 SE7       30.03F
$$
MNZ006-009>011-018-025>026-281300-
   North Central Minnesota

CITY           SKY/WX    TMP DP  RH WIND       PRES   REMARKS
BAUDETTE       FOG       49  49 100 SE3       30.05S VSB 1/4
FLAG ISLAND    CLEAR     64  61  88 S7        30.02S
INTL FALLS     MOCLDY    46  45  96 SE3       30.08S FOG
6HR MIN TEMP:  43; 6HR MAX TEMP:  50;

WASKISH        MOCLDY    54  54 100 CALM      30.06F
BIG FORK       FOG       45  43  93 CALM      30.10S VSB<1/4
LONGVILLE      CLOUDY    55  55 100 CALM      30.07S FOG
GRAND RAPIDS   MOCLDY    52  48  87 CALM      30.10S
CRANE LAKE     CLEAR     39  39 100 CALM      30.12S
ORR            FOG       48  46  93 CALM      30.08F VSB 1/4
COOK           CLEAR     41  41 100 CALM      30.11F
WALKER         CLOUDY    59  56  89 S5        30.07S
$$
MNZ012-019>021-037-281300-
   Northeast Minnesota

CITY           SKY/WX    TMP DP  RH WIND       PRES   REMARKS
DULUTH         CLEAR     54  50  86 CALM      30.12S
6HR MIN TEMP:  52; 6HR MAX TEMP:  58;

ELY            CLEAR     41  39  93 CALM      30.12S
HIBBING        FOG       47  45  93 CALM      30.12S VSB<1/4
EVELETH        FOG       46  45  93 CALM      30.13S VSB<1/4
DULUTH HARBOR  CLEAR     57  55  94 CALM      30.12S
TWO HARBORS    CLEAR     46  41  81 CALM      30.11S
SILVER BAY     CLEAR     43  43 100 CALM      30.12R
GRAND MARAIS     N/A     53  49  86 CALM      30.12F
G MARAIS ARPRT MOCLDY    46  43  87 CALM      30.15S
$$
MNZ029>031-032-039>041-046>048-054>057-064-281300-
   West Central Minnesota

CITY           SKY/WX    TMP DP  RH WIND       PRES   REMARKS
FERGUS FALLS   MOCLDY    64  57  77 SE9       30.02S
WHEATON        MOCLDY    57  55  94 E7        30.02S
MORRIS         MOCLDY    63  61  94 SE9       30.01S
ALEXANDRIA     MOCLDY    61  58  90 SE8       30.06S
ELBOW LAKE     FAIR      62  59  91 SE8       30.02S
WADENA         MOCLDY    59  55  88 E5        30.05S
GLENWOOD       MOCLDY    61  59  94 SE7       30.06S
APPLETON       CLOUDY    64  59  82 SE7       30.01S
BENSON         MOCLDY    63  57  82 SE7       30.03S
ORTONVILLE     CLOUDY    63  57  82 SE7       30.00S
MADISON        MOCLDY    66  61  82 SE8       30.00F
WILLMAR        FAIR      63  57  82 E9        30.06R
$$
MNZ033>034-036-042>043-049>051-058-059-281300-
   Central Minnesota

CITY           SKY/WX    TMP DP  RH WIND       PRES   REMARKS
ST CLOUD       CLEAR     59  55  87 E5        30.08R
6HR MIN TEMP:  59; 6HR MAX TEMP:  63;

SAUK CENTRE    FAIR      60  57  92 E5        30.07R
PAYNESVILLE    PTCLDY    58  56  94 NE6       30.07R FOG
AITKIN         CLOUDY    57  52  82 CALM      30.08R
PINE RIVER     CLEAR     55  55 100 CALM      30.11R
BRAINERD       PTCLDY    59  55  87 VRB5      30.08S
STAPLES        CLOUDY    57  55  94 SE3       30.07S
LONG PRAIRIE   CLOUDY    59  55  88 E6        30.07S
LITTLE FALLS   PTCLDY    57  54  88 SE3       30.08R
LITCHFIELD     PTCLDY    63  63 100 SE8       30.07S
BUFFALO        CLEAR     60  56  85 E3        30.08S
MAPLE LAKE     CLEAR     62  59  91 SE3       30.08S
$$
MNZ037-044-045-052-053-281300-
   East Central Minnesota

CITY           SKY/WX    TMP DP  RH WIND       PRES   REMARKS
PRINCETON      CLEAR     59  55  88 E2        30.09R
MORA           CLOUDY    55  54  94 CALM      30.11R
CAMBRIDGE      CLEAR     61  52  72 CALM      30.08R
RUSH CITY      PTCLDY    55  53  93 CALM      30.10R
MOOSE LAKE     CLEAR     48  46  93 CALM      30.09S FOG
HINCKLEY       FAIR      54  52  94 CALM      30.11R
CLOQUET        FOG       46  46 100 CALM      30.12R VSB 1
MCGREGOR       CLEAR     52  50  93 CALM      30.10S
$$
MNZ071>073-080-081-089-090-097-098-281300-
   Southwest Minnesota

CITY           SKY/WX    TMP DP  RH WIND       PRES   REMARKS
MONTEVIDEO     MOCLDY    63  61  94 S7        30.02F
GRANITE FALLS  MOCLDY    63  59  88 E7        30.03F
CANBY          CLOUDY    63  60  93 SE6       30.02S
MARSHALL       CLOUDY    63  57  82 SE9       30.01R
REDWOOD FALLS  CLOUDY    62  59  90 E8        30.03F
OLIVIA         MOCLDY    61  55  82 SE6       30.04S
PIPESTONE      LGT RAIN  64  63  94 SE8       30.00F
WINDOM         CLOUDY    64  61  88 SE7       30.04S
WORTHINGTON    CLOUDY    64  63  94 E8        30.03F
JACKSON        CLOUDY    63  59  88 SE8       30.04F
TRACY          CLOUDY    64  61  91 SE7       30.02F
SLAYTON        CLOUDY    63  61  93 CALM      30.03S
$$
MNZ065>067-074>077-082>085-091>093-281300-
   South Central Minnesota

CITY           SKY/WX    TMP DP  RH WIND       PRES   REMARKS
MANKATO        MOCLDY    63  55  77 SE9       30.06S
NEW ULM        MOCLDY    61  61 100 SE7       30.05S
ST JAMES       MOCLDY    63  59  88 E6        30.06R
FAIRMONT       CLOUDY    63  57  82 SE6       30.05R
GLENCOE        PTCLDY    60  56  88 E5        30.07S
FARIBAULT      MOCLDY    64  55  72 SE5       30.08S
OWATONNA       MOCLDY    61  57  88 E6        30.08S
WASECA         MOCLDY    59  54  82 E6        30.09R
ALBERT LEA     CLOUDY    63  59  88 SE9       30.07S
$$
MNZ078>079-086>088-094>096-281300-
   Southeast Minnesota

CITY           SKY/WX    TMP DP  RH WIND       PRES   REMARKS
ROCHESTER      PTCLDY    59  57  93 SE8       30.11S
6HR MIN TEMP:  57; 6HR MAX TEMP:  60;

RED WING       PTCLDY    61  55  82 E6        30.08F
STANTON        PTCLDY    60  58  93 E5        30.07S
DODGE CENTER   MOCLDY    59  57  94 SE5       30.10R
WINONA         PTCLDY    59  55  88 CALM      30.11S
AUSTIN         MOCLDY    61  57  88 E6        30.08S
PRESTON        PTCLDY    57  58 100 CALM      30.11R
$$
ABBREVIATIONS USED IN REMARKS
   TC - TEMPERATURES IN CELSIUS
  WCI - WIND CHILL INDEX
   HX - HEAT INDEX
  VSB - VISIBILITY
$$



USA.gov is the U.S. government's official web portal to all federal, state and local government web resources and services.